Location: Dover
(48.8500°N, 53.9833°W)
Time: 17:02:31
(UTC+00:00)

Cosmos 1763 Rocket - Pass Details

Date: 14 November 2025
Orbit: 728 x 774 km, 74.0° (Epoch: 12 December)

Event Time Altitude Azimuth Distance (km) Brightness Sun altitude
Rises 21:11:04 0° 339° (NNW) 3,248 6.8 -12.3°
Reaches altitude 10° 21:13:31 10° 343° (NNW) 2,312 6.0 -12.7°
Maximum altitude 21:18:41 57° 62° (ENE) 892 3.5 -13.5°
Drops below altitude 10° 21:23:45 10° 142° (SE) 2,267 5.7 -14.3°
Sets 21:26:08 0° 146° (SE) 3,180 6.5 -14.7°
